EA8CHC Sevilla ES current weather conditions

sailwx.info

Wind from 316 at 2 knots gusting 4

Air temperature 17.8° C
Dewpoint 12.4° C

Last reported at 2017-Sep-25 04:02 UTC.
Time now 2017-Sep-25 04:32 UTC

Location: N 37°26' W 006°03'.
View on Google Maps.

See reports from other nearby stations

  
Tides and Currents Weather Stations Pressure Air Temp Water Temp Dewpoint Dewpoint Depression Visibility Wind Speed Wind Dir Waves Ship Positions
date/time (UTC)wind fromknots sea level pressurealtimeterstation pressurevisibilityair tempwater tempwave heightnotes
2017-Sep-25 04:07 317 2 gusting 4 17.8
2017-Sep-25 04:02 316 2 gusting 4 17.8
2017-Sep-25 03:57 305 2 gusting 4 17.8
2017-Sep-25 03:52 308 1 gusting 4 18.3
2017-Sep-25 03:47 315 1 gusting 3 18.3
2017-Sep-25 03:42 313 1 gusting 3 18.3
2017-Sep-25 03:37 318 1 gusting 3 18.3
2017-Sep-25 03:32 311 0 gusting 2 18.3
2017-Sep-25 03:27 304 0 gusting 2 18.9
2017-Sep-25 03:22 300 18.9
2017-Sep-25 03:17 300 0 gusting 2 18.9
2017-Sep-25 03:12 300 0 gusting 1 18.9
2017-Sep-25 03:07 177 19.4
2017-Sep-25 03:02 173 19.4
2017-Sep-25 02:57 171 0 gusting 7 19.4
2017-Sep-25 02:52 171 2 gusting 7 19.4
2017-Sep-25 02:47 171 2 gusting 7 20.0
2017-Sep-25 02:42 163 1 gusting 5 20.0
2017-Sep-25 02:37 134 0 gusting 3 20.0
2017-Sep-25 02:32 134 0 gusting 4 20.0
2017-Sep-25 02:27 134 1 gusting 4 20.0
2017-Sep-25 02:22 134 1 gusting 4 20.6
2017-Sep-25 02:17 134 0 gusting 3 20.6
2017-Sep-25 02:12 134 0 gusting 3 20.6
2017-Sep-25 02:07 134 0 gusting 3 20.6
2017-Sep-25 02:02 134 0 gusting 3 20.6
2017-Sep-25 01:57 134 0 gusting 4 20.6
2017-Sep-25 01:52 134 20.6
2017-Sep-25 01:47 134 0 gusting 4 20.6
2017-Sep-25 01:42 134 0 gusting 3 21.1
2017-Sep-25 01:37 134 21.1
2017-Sep-25 01:32 134 21.1
2017-Sep-25 01:27 134 21.1
2017-Sep-25 01:22 134 21.1
2017-Sep-25 01:17 134 0 gusting 3 21.1
2017-Sep-25 01:12 134 0 gusting 4 21.1
2017-Sep-25 01:07 134 0 gusting 4 21.1
2017-Sep-25 01:02 134 1 gusting 4 21.1
2017-Sep-25 00:57 134 1 gusting 4 21.1
2017-Sep-25 00:52 119 1 gusting 4 21.7
2017-Sep-25 00:47 119 0 gusting 6 21.7
2017-Sep-25 00:42 119 1 gusting 6 21.7
2017-Sep-25 00:37 119 1 gusting 6 22.2
2017-Sep-25 00:32 286 22.8
2017-Sep-25 00:27 285 0 gusting 5 23.3
2017-Sep-25 00:22 283 1 gusting 5 23.3
2017-Sep-25 00:17 286 0 gusting 4 22.8
2017-Sep-25 00:12 316 0 gusting 4 22.8
2017-Sep-25 00:07 316 0 gusting 4 22.8
2017-Sep-25 00:02 316 0 gusting 2 22.8
2017-Sep-24 23:57 329 0 gusting 2 22.8
2017-Sep-24 23:52 262 22.8
2017-Sep-24 23:47 262 22.8
2017-Sep-24 23:42 262 22.8
2017-Sep-24 23:37 262 0 gusting 3 23.3
2017-Sep-24 23:32 262 0 gusting 3 23.3
2017-Sep-24 23:27 262 24.4
2017-Sep-24 23:22 262 24.4
2017-Sep-24 23:17 262 24.4
2017-Sep-24 23:12 262 24.4
2017-Sep-24 23:07 262 0 gusting 5 24.4
2017-Sep-24 23:02 268 1 gusting 8 24.4
2017-Sep-24 22:57 260 2 gusting 8 25.0
2017-Sep-24 22:52 258 3 gusting 9 24.4
2017-Sep-24 22:47 286 5 gusting 9 24.4
2017-Sep-24 22:42 243 6 gusting 9 25.0
2017-Sep-24 22:37 259 6 gusting 9 25.0
2017-Sep-24 22:32 274 5 gusting 7 25.0
2017-Sep-24 22:27 279 5 gusting 8 25.0
2017-Sep-24 22:22 263 5 gusting 9 25.0
2017-Sep-24 22:17 276 6 gusting 9 25.0
2017-Sep-24 22:12 279 6 gusting 10 25.0
2017-Sep-24 22:07 267 6 gusting 10 25.0
2017-Sep-24 22:02 288 6 gusting 11 25.0
2017-Sep-24 21:57 272 6 gusting 12 25.0
2017-Sep-24 21:52 279 7 gusting 13 25.0
2017-Sep-24 21:47 272 7 gusting 13 25.0
2017-Sep-24 21:42 263 6 gusting 13 25.0
2017-Sep-24 21:37 267 6 gusting 12 25.6
2017-Sep-24 21:32 257 6 gusting 12 25.6
2017-Sep-24 21:27 259 7 gusting 12 25.6
2017-Sep-24 21:22 259 6 gusting 13 25.6
2017-Sep-24 21:17 273 6 gusting 13 25.6
2017-Sep-24 21:12 278 6 gusting 13 25.6
2017-Sep-24 21:07 274 6 gusting 11 25.6
2017-Sep-24 21:02 267 6 gusting 13 25.6
2017-Sep-24 20:57 244 6 gusting 13 25.6
2017-Sep-24 20:52 279 7 gusting 13 25.6
2017-Sep-24 20:47 261 7 gusting 13 26.1
2017-Sep-24 20:42 261 6 gusting 15 26.1
2017-Sep-24 20:37 244 6 gusting 15 26.1
2017-Sep-24 20:32 273 7 gusting 15 26.1
2017-Sep-24 20:27 269 8 gusting 13 26.1
2017-Sep-24 20:22 261 8 gusting 13 26.1
2017-Sep-24 20:17 241 6 gusting 12 26.1
2017-Sep-24 20:12 268 6 gusting 11 26.7
2017-Sep-24 20:07 272 6 gusting 11 26.7
2017-Sep-24 20:02 271 6 gusting 11 26.7
2017-Sep-24 19:57 255 5 gusting 9 26.7
2017-Sep-24 19:52 248 4 gusting 9 27.2
2017-Sep-24 19:47 279 4 gusting 8 27.2
2017-Sep-24 19:42 266 3 gusting 9 27.2
2017-Sep-24 19:37 259 4 gusting 9 27.8
2017-Sep-24 19:32 265 4 gusting 9 27.8
2017-Sep-24 19:27 261 5 gusting 9 27.8
2017-Sep-24 19:22 257 4 gusting 9 27.8
2017-Sep-24 19:17 223 4 gusting 9 28.3
2017-Sep-24 19:12 234 3 gusting 9 28.3
2017-Sep-24 19:07 229 4 gusting 9 28.3
2017-Sep-24 19:02 229 5 gusting 9 28.3
2017-Sep-24 18:57 227 5 gusting 10 28.3
2017-Sep-24 18:52 224 4 gusting 10 28.9
2017-Sep-24 18:47 236 3 gusting 10 28.9
2017-Sep-24 18:42 221 3 gusting 10 28.9
2017-Sep-24 18:37 268 5 gusting 11 28.9
2017-Sep-24 18:32 225 6 gusting 11 28.9
2017-Sep-24 18:27 227 6 gusting 13 29.4
2017-Sep-24 18:22 205 6 gusting 13 29.4
2017-Sep-24 18:17 232 6 gusting 13 29.4
2017-Sep-24 18:12 201 6 gusting 13 30.0
2017-Sep-24 18:07 192 5 gusting 10 30.6
2017-Sep-24 18:02 190 4 gusting 10 30.6
2017-Sep-24 17:57 205 3 gusting 8 31.1
2017-Sep-24 17:52 227 3 gusting 7 31.1
2017-Sep-24 17:47 180 2 gusting 5 31.1
2017-Sep-24 17:42 158 3 gusting 5 31.1
2017-Sep-24 17:37 150 3 gusting 5 31.1
2017-Sep-24 17:32 151 3 gusting 5 31.1
2017-Sep-24 17:27 119 2 gusting 6 31.1
2017-Sep-24 17:22 109 2 gusting 6 31.1
2017-Sep-24 17:17 109 1 gusting 6 31.7
2017-Sep-24 17:12 136 0 gusting 4 31.7
2017-Sep-24 17:07 135 1 gusting 4 31.7
2017-Sep-24 17:02 144 1 gusting 4 31.7
2017-Sep-24 16:57 117 1 gusting 4 31.7
2017-Sep-24 16:52 117 0 gusting 4 31.7
2017-Sep-24 16:47 117 0 gusting 4 31.7
2017-Sep-24 16:42 117 0 gusting 4 31.7
2017-Sep-24 16:37 114 31.7
2017-Sep-24 16:32 084 0 gusting 6 31.7
2017-Sep-24 16:27 084 1 gusting 6 31.7
2017-Sep-24 16:22 149 1 gusting 6 31.7
2017-Sep-24 16:17 136 0 gusting 4 31.7
2017-Sep-24 16:12 144 0 gusting 5 31.7
2017-Sep-24 16:07 140 1 gusting 5 31.1
2017-Sep-24 16:02 138 1 gusting 5 31.1
2017-Sep-24 15:57 121 1 gusting 4 31.1
2017-Sep-24 15:52 105 1 gusting 4 31.1
2017-Sep-24 15:47 085 1 gusting 4 31.1
2017-Sep-24 15:42 096 1 gusting 6 31.1
2017-Sep-24 15:37 075 2 gusting 6 31.1
2017-Sep-24 15:32 094 1 gusting 7 31.1
2017-Sep-24 15:27 067 1 gusting 7 31.7
2017-Sep-24 15:22 215 1 gusting 7 31.1
2017-Sep-24 15:17 191 1 gusting 4 31.1
2017-Sep-24 15:12 186 0 gusting 5 31.1
2017-Sep-24 15:07 140 1 gusting 5 30.6
2017-Sep-24 15:02 051 1 gusting 5 30.6
2017-Sep-24 14:57 062 0 gusting 5 31.1
2017-Sep-24 14:52 084 0 gusting 5 30.6
2017-Sep-24 14:47 084 1 gusting 5 30.6
2017-Sep-24 14:42 086 1 gusting 5 30.6
2017-Sep-24 14:37 056 1 gusting 5 30.6
2017-Sep-24 14:32 005 1 gusting 6 30.6
2017-Sep-24 14:27 042 1 gusting 6 30.6
2017-Sep-24 14:22 286 2 gusting 6 30.6
2017-Sep-24 14:17 342 2 gusting 6 30.6
2017-Sep-24 14:12 345 1 gusting 6 30.6
2017-Sep-24 14:07 055 0 gusting 5 30.6
2017-Sep-24 14:02 059 1 gusting 5 30.0
2017-Sep-24 13:57 017 0 gusting 5 30.0
2017-Sep-24 13:52 090 0 gusting 5 30.0
2017-Sep-24 13:47 032 2 gusting 6 30.0
2017-Sep-24 13:42 355 2 gusting 6 30.0
2017-Sep-24 13:37 028 0 gusting 6 30.0
2017-Sep-24 13:32 046 30.0
2017-Sep-24 13:27 046 0 gusting 5 29.4
2017-Sep-24 13:22 046 1 gusting 6 29.4
2017-Sep-24 13:17 066 2 gusting 6 29.4
2017-Sep-24 13:12 078 2 gusting 6 28.9
2017-Sep-24 13:07 107 2 gusting 5 28.9
2017-Sep-24 13:02 074 1 gusting 5 29.4
2017-Sep-24 12:57 078 0 gusting 6 29.4
2017-Sep-24 12:52 005 1 gusting 6 28.9
2017-Sep-24 12:47 130 1 gusting 6 28.3
2017-Sep-24 12:42 100 1 gusting 5 28.3
2017-Sep-24 12:37 096 2 gusting 7 28.3
2017-Sep-24 12:32 094 3 gusting 7 28.3
2017-Sep-24 12:27 086 2 gusting 7 28.3
2017-Sep-24 12:22 079 2 gusting 6 28.3
2017-Sep-24 12:17 102 3 gusting 6 28.3
2017-Sep-24 12:12 093 1 gusting 6 28.3
2017-Sep-24 12:07 131 0 gusting 6 28.3
2017-Sep-24 12:02 114 2 gusting 6 28.3
2017-Sep-24 11:57 114 2 gusting 6 28.3
2017-Sep-24 11:52 139 1 gusting 4 28.3
2017-Sep-24 11:47 098 1 gusting 4 27.8
2017-Sep-24 11:42 060 1 gusting 3 28.3
2017-Sep-24 11:37 058 0 gusting 2 28.3
2017-Sep-24 11:32 046 27.8
2017-Sep-24 11:27 024 0 gusting 3 27.8
2017-Sep-24 11:22 021 0 gusting 4 27.8
2017-Sep-24 11:17 225 0 gusting 4 27.2
2017-Sep-24 11:12 221 0 gusting 4 27.2
2017-Sep-24 11:07 222 0 gusting 4 27.2
2017-Sep-24 11:02 222 0 gusting 4 26.7
2017-Sep-24 10:57 223 0 gusting 6 26.7
2017-Sep-24 10:52 145 0 gusting 6 26.7
2017-Sep-24 10:47 144 0 gusting 6 26.7
2017-Sep-24 10:42 134 1 gusting 5 26.1
2017-Sep-24 10:37 132 0 gusting 5 26.1
2017-Sep-24 10:32 132 26.7
2017-Sep-24 10:27 140 26.1
2017-Sep-24 10:22 140 25.6
2017-Sep-24 10:17 140 25.0
2017-Sep-24 10:12 140 0 gusting 5 25.0
2017-Sep-24 10:07 119 1 gusting 5 24.4
2017-Sep-24 10:02 119 0 gusting 5 24.4
2017-Sep-24 09:57 119 0 gusting 5 24.4
2017-Sep-24 09:52 119 0 gusting 5 24.4
2017-Sep-24 09:47 119 0 gusting 4 23.9
2017-Sep-24 09:42 095 0 gusting 1 23.9
2017-Sep-24 09:37 095 0 gusting 4 23.3
2017-Sep-24 09:32 095 0 gusting 4 23.3
2017-Sep-24 09:27 095 0 gusting 4 23.3
2017-Sep-24 09:22 096 0 gusting 4 23.3
2017-Sep-24 09:17 096 0 gusting 4 22.8
2017-Sep-24 09:12 092 1 gusting 4 22.8
2017-Sep-24 09:07 092 0 gusting 3 22.2
2017-Sep-24 09:02 080 0 gusting 3 22.2
2017-Sep-24 08:57 042 0 gusting 3 22.2
2017-Sep-24 08:52 042 0 gusting 3 21.7
2017-Sep-24 08:47 042 0 gusting 3 21.7
2017-Sep-24 08:42 042 0 gusting 3 21.7
2017-Sep-24 08:37 042 0 gusting 3 21.1
2017-Sep-24 08:32 042 0 gusting 3 20.6
2017-Sep-24 08:27 042 0 gusting 3 20.6
2017-Sep-24 08:22 042 0 gusting 3 20.6
2017-Sep-24 08:17 042 1 gusting 4 20.6
2017-Sep-24 08:12 047 1 gusting 4 20.6
2017-Sep-24 08:07 030 1 gusting 4 20.0
2017-Sep-24 08:02 042 1 gusting 4 20.0
2017-Sep-24 07:57 043 0 gusting 3 20.0
2017-Sep-24 07:52 355 0 gusting 2 19.4
2017-Sep-24 07:47 336 0 gusting 3 19.4
2017-Sep-24 07:42 325 0 gusting 4 18.9
2017-Sep-24 07:37 324 1 gusting 4 18.9
2017-Sep-24 07:32 317 0 gusting 4 18.3
2017-Sep-24 07:27 342 0 gusting 3 18.3
2017-Sep-24 07:22 325 0 gusting 3 18.3
2017-Sep-24 07:17 344 0 gusting 2 18.3
2017-Sep-24 07:12 344 0 gusting 2 18.3
2017-Sep-24 07:07 344 0 gusting 2 18.3
2017-Sep-24 07:02 350 0 gusting 2 18.3
2017-Sep-24 06:57 350 18.3
2017-Sep-24 06:52 350 18.3
2017-Sep-24 06:47 350 18.3
2017-Sep-24 06:42 350 18.3
2017-Sep-24 06:37 350 18.3
2017-Sep-24 06:32 350 18.3
2017-Sep-24 06:27 350 18.3
2017-Sep-24 06:22 350 17.8
2017-Sep-24 06:17 350 17.8
2017-Sep-24 06:12 355 17.8
2017-Sep-24 06:07 328 17.8
2017-Sep-24 06:02 328 17.8
2017-Sep-24 05:57 328 17.8
2017-Sep-24 05:52 328 17.8
2017-Sep-24 05:47 328 17.8
2017-Sep-24 05:42 328 0 gusting 3 17.8
2017-Sep-24 05:37 328 1 gusting 3 17.8
2017-Sep-24 05:32 328 1 gusting 3 17.8
2017-Sep-24 05:27 338 0 gusting 3 17.8
2017-Sep-24 05:22 339 1 gusting 3 17.8
2017-Sep-24 05:17 338 1 gusting 3 18.3
2017-Sep-24 05:12 338 0 gusting 2 18.3
2017-Sep-24 05:07 355 18.3
2017-Sep-24 05:02 355 18.3
2017-Sep-24 04:57 355 18.3
2017-Sep-24 04:52 355 18.3
2017-Sep-24 04:47 355 18.3
2017-Sep-24 04:42 355 0 gusting 3 18.3
2017-Sep-24 04:37 355 1 gusting 3 18.3
2017-Sep-24 04:32 355 1 gusting 3 18.3
2017-Sep-24 04:27 355 1 gusting 3 18.9
2017-Sep-24 04:22 355 1 gusting 3 18.9
2017-Sep-24 04:17 355 1 gusting 3 19.4
2017-Sep-24 04:12 355 0 gusting 3 19.4
2017-Sep-24 04:07 271 20.0
2017-Sep-24 04:02 271 20.0
2017-Sep-24 03:57 271 20.0
2017-Sep-24 03:52 271 20.6
2017-Sep-24 03:47 271 0 gusting 4 20.6
2017-Sep-24 03:42 271 1 gusting 4 20.6
2017-Sep-24 03:37 269 1 gusting 6 20.6
2017-Sep-24 03:32 272 1 gusting 6 20.6
2017-Sep-24 03:27 269 1 gusting 6 20.6
2017-Sep-24 03:22 234 2 gusting 5 20.6
2017-Sep-24 03:17 247 2 gusting 5 20.6
2017-Sep-24 03:12 247 2 gusting 6 20.6
2017-Sep-24 03:07 251 2 gusting 6 20.6
2017-Sep-24 03:02 247 3 gusting 6 20.6
2017-Sep-24 02:57 231 4 gusting 7 20.6
2017-Sep-24 02:52 241 4 gusting 8 20.6
2017-Sep-24 02:47 244 5 gusting 9 20.6
2017-Sep-24 02:42 221 6 gusting 9 20.6
2017-Sep-24 02:37 217 6 gusting 10 20.6
2017-Sep-24 02:32 204 6 gusting 10 20.6
2017-Sep-24 02:27 248 6 gusting 12 20.6
2017-Sep-24 02:22 222 6 gusting 12 20.6
2017-Sep-24 02:17 202 5 gusting 12 20.6
2017-Sep-24 02:12 193 3 gusting 8 20.6
2017-Sep-24 02:07 202 2 gusting 6 20.6
2017-Sep-24 02:02 209 2 gusting 6 20.6
2017-Sep-24 01:57 212 1 gusting 6 20.6
2017-Sep-24 01:52 186 2 gusting 6 20.6
2017-Sep-24 01:47 168 1 gusting 6 20.6
2017-Sep-24 01:42 185 1 gusting 5 21.1
2017-Sep-24 01:37 185 2 gusting 5 21.1
2017-Sep-24 01:32 185 1 gusting 5 21.1
2017-Sep-24 01:27 185 0 gusting 5 21.1
2017-Sep-24 01:22 190 1 gusting 5 21.7
2017-Sep-24 01:17 190 1 gusting 5 21.7
2017-Sep-24 01:12 190 1 gusting 5 21.7
2017-Sep-24 01:07 190 1 gusting 5 22.2
2017-Sep-24 01:02 190 1 gusting 5 22.2
2017-Sep-24 00:57 190 0 gusting 2 22.2
2017-Sep-24 00:52 190 22.2
2017-Sep-24 00:47 190 22.8
2017-Sep-24 00:42 190 0 gusting 6 22.8
2017-Sep-24 00:37 190 1 gusting 6 22.8
2017-Sep-24 00:32 190 2 gusting 6 22.8
2017-Sep-24 00:27 190 2 gusting 5 23.3
2017-Sep-24 00:22 211 2 gusting 5 23.3
2017-Sep-24 00:17 211 1 gusting 5 23.3
2017-Sep-24 00:12 200 23.3
2017-Sep-24 00:07 229 0 gusting 5 23.3
2017-Sep-24 00:02 229 1 gusting 5 23.3
2017-Sep-23 23:57 244 0 gusting 5 23.3
2017-Sep-23 23:52 240 0 gusting 6 23.3
2017-Sep-23 23:47 240 1 gusting 6 23.3
2017-Sep-23 23:42 300 1 gusting 9 23.3
2017-Sep-23 23:37 277 3 gusting 9 23.3
2017-Sep-23 23:32 266 5 gusting 12 23.3
2017-Sep-23 23:27 286 6 gusting 12 23.9
2017-Sep-23 23:22 280 6 gusting 12 23.9
2017-Sep-23 23:17 263 5 gusting 10 23.9
2017-Sep-23 23:12 231 6 gusting 10 23.9
2017-Sep-23 23:07 270 6 gusting 10 23.9
2017-Sep-23 23:02 276 6 gusting 10 23.9
2017-Sep-23 22:57 257 5 gusting 9 23.9
2017-Sep-23 22:52 286 4 gusting 8 23.9
2017-Sep-23 22:47 279 6 gusting 10 23.9
2017-Sep-23 22:42 278 6 gusting 13 23.9
2017-Sep-23 22:37 264 6 gusting 13 23.9
2017-Sep-23 22:32 281 6 gusting 13 23.9
2017-Sep-23 22:27 271 6 gusting 13 23.9
2017-Sep-23 22:22 276 6 gusting 12 23.9
2017-Sep-23 22:17 278 6 gusting 13 23.9
2017-Sep-23 22:12 264 6 gusting 13 23.9
2017-Sep-23 22:07 263 6 gusting 13 23.9
2017-Sep-23 22:02 270 6 gusting 13 23.9
2017-Sep-23 21:57 271 7 gusting 15 23.9
2017-Sep-23 21:52 263 9 gusting 15 24.4
2017-Sep-23 21:47 269 10 gusting 15 24.4
2017-Sep-23 21:42 253 9 gusting 13 24.4
2017-Sep-23 21:37 275 8 gusting 13 24.4
2017-Sep-23 21:32 291 7 gusting 13 25.0
2017-Sep-23 21:27 292 8 gusting 13 25.0
2017-Sep-23 21:22 264 8 gusting 13 25.0
2017-Sep-23 21:17 272 7 gusting 12 25.6
2017-Sep-23 21:12 252 8 gusting 13 25.6
2017-Sep-23 21:07 277 8 gusting 13 25.6
2017-Sep-23 21:02 271 7 gusting 13 25.6
2017-Sep-23 20:57 262 7 gusting 12 25.6
2017-Sep-23 20:52 272 7 gusting 11 25.6
2017-Sep-23 20:47 267 7 gusting 13 25.6
2017-Sep-23 20:42 247 7 gusting 13 25.6
2017-Sep-23 20:37 266 6 gusting 13 26.1
2017-Sep-23 20:32 268 6 gusting 12 26.1
2017-Sep-23 20:27 271 6 gusting 11 26.1
2017-Sep-23 20:22 291 5 gusting 11 26.1
2017-Sep-23 20:17 268 5 gusting 10 26.1
2017-Sep-23 20:12 257 5 gusting 10 26.1
2017-Sep-23 20:07 260 4 gusting 9 26.7
2017-Sep-23 20:02 250 5 gusting 9 26.7
2017-Sep-23 19:57 263 4 gusting 9 26.7
2017-Sep-23 19:52 244 4 gusting 9 26.7
2017-Sep-23 19:47 257 4 gusting 9 27.2
2017-Sep-23 19:42 244 4 gusting 9 27.2
2017-Sep-23 19:37 275 5 gusting 10 27.2
2017-Sep-23 19:32 234 4 gusting 10 27.2
2017-Sep-23 19:27 254 4 gusting 10 27.8
2017-Sep-23 19:22 278 4 gusting 9 27.8
2017-Sep-23 19:17 259 5 gusting 9 27.8
2017-Sep-23 19:12 246 6 gusting 9 27.8
2017-Sep-23 19:07 249 4 gusting 6 28.3
2017-Sep-23 19:02 218 1 gusting 6 28.3
2017-Sep-23 18:57 207 0 gusting 4 28.9
2017-Sep-23 18:52 200 1 gusting 4 28.9
2017-Sep-23 18:47 202 1 gusting 5 28.9
2017-Sep-23 18:42 202 1 gusting 5 28.9
2017-Sep-23 18:37 188 1 gusting 5 29.4
2017-Sep-23 18:32 188 2 gusting 6 29.4
2017-Sep-23 18:27 185 1 gusting 6 29.4
2017-Sep-23 18:22 174 1 gusting 4 29.4
2017-Sep-23 18:17 174 1 gusting 5 29.4
2017-Sep-23 18:12 174 2 gusting 5 30.0
2017-Sep-23 18:07 174 2 gusting 5 30.0
2017-Sep-23 18:02 174 2 gusting 5 30.0
2017-Sep-23 17:57 174 1 gusting 5 30.6
2017-Sep-23 17:52 174 1 gusting 5 30.6
2017-Sep-23 17:47 179 1 gusting 5 30.6
2017-Sep-23 17:42 188 0 gusting 3 30.6
2017-Sep-23 17:37 188 31.1
2017-Sep-23 17:32 188 31.1
2017-Sep-23 17:27 188 31.1
2017-Sep-23 17:22 188 31.1
2017-Sep-23 17:17 188 0 gusting 4 30.6
2017-Sep-23 17:12 188 1 gusting 4 30.6
2017-Sep-23 17:07 188 0 gusting 4 31.1
2017-Sep-23 17:02 188 0 gusting 4 31.1
2017-Sep-23 16:57 188 0 gusting 4 31.1
2017-Sep-23 16:52 188 31.1
2017-Sep-23 16:47 188 0 gusting 5 31.1
2017-Sep-23 16:42 188 0 gusting 5 31.1
2017-Sep-23 16:37 189 1 gusting 5 31.1
2017-Sep-23 16:32 176 1 gusting 4 31.1
2017-Sep-23 16:27 220 1 gusting 8 30.6
2017-Sep-23 16:22 185 2 gusting 8 30.6
2017-Sep-23 16:17 161 3 gusting 9 30.6
2017-Sep-23 16:12 123 3 gusting 9 30.6
2017-Sep-23 16:07 123 3 gusting 9 30.6
2017-Sep-23 16:02 129 1 gusting 6 31.1
2017-Sep-23 15:57 159 31.1
2017-Sep-23 15:52 159 0 gusting 6 30.6
2017-Sep-23 15:47 158 2 gusting 6 30.6
2017-Sep-23 15:42 198 2 gusting 6 30.6
2017-Sep-23 15:37 197 1 gusting 4 30.6
2017-Sep-23 15:32 162 1 gusting 4 30.6
2017-Sep-23 15:27 087 1 gusting 5 30.6
2017-Sep-23 15:22 107 1 gusting 5 30.6
2017-Sep-23 15:17 107 1 gusting 5 30.6
2017-Sep-23 15:12 071 1 gusting 4 30.6
2017-Sep-23 15:07 030 1 gusting 6 30.0
2017-Sep-23 15:02 138 1 gusting 6 30.0
2017-Sep-23 14:57 138 2 gusting 6 30.0
2017-Sep-23 14:52 074 1 gusting 6 30.0
2017-Sep-23 14:47 115 2 gusting 6 30.6
2017-Sep-23 14:42 127 3 gusting 6 30.6
2017-Sep-23 14:37 145 1 gusting 5 30.6
2017-Sep-23 14:32 048 1 gusting 4 30.6
2017-Sep-23 14:27 169 1 gusting 4 30.6
2017-Sep-23 14:22 082 0 gusting 5 30.6
2017-Sep-23 14:17 009 1 gusting 5 30.0
2017-Sep-23 14:12 069 0 gusting 5 30.0
2017-Sep-23 14:07 074 1 gusting 7 30.0
2017-Sep-23 14:02 294 2 gusting 7 30.0
2017-Sep-23 13:57 310 2 gusting 7 30.0
2017-Sep-23 13:52 310 1 gusting 6 30.0
2017-Sep-23 13:47 306 1 gusting 6 30.0
2017-Sep-23 13:42 284 1 gusting 6 30.0
2017-Sep-23 13:37 276 1 gusting 6 29.4
2017-Sep-23 13:32 184 0 gusting 7 29.4
2017-Sep-23 13:27 214 1 gusting 7 29.4
2017-Sep-23 13:22 218 1 gusting 7 29.4
2017-Sep-23 13:17 170 0 gusting 5 29.4
2017-Sep-23 13:12 043 1 gusting 5 28.9
2017-Sep-23 13:07 022 1 gusting 6 28.9
2017-Sep-23 13:02 053 1 gusting 6 28.3
2017-Sep-23 12:57 055 2 gusting 6 28.3
2017-Sep-23 12:52 065 3 gusting 6 28.3
2017-Sep-23 12:47 154 3 gusting 6 28.3
2017-Sep-23 12:42 105 1 gusting 5 28.3
2017-Sep-23 12:37 034 0 gusting 6 28.3
2017-Sep-23 12:32 070 2 gusting 6 28.3
2017-Sep-23 12:27 070 4 gusting 6 28.3
2017-Sep-23 12:22 026 2 gusting 6 28.3
2017-Sep-23 12:17 005 0 gusting 6 28.3
2017-Sep-23 12:12 211 0 gusting 6 28.3
2017-Sep-23 12:07 074 2 gusting 6 28.3
2017-Sep-23 12:02 009 3 gusting 6 27.8
2017-Sep-23 11:57 017 2 gusting 9 27.8
2017-Sep-23 11:52 086 2 gusting 9 27.8
2017-Sep-23 11:47 113 3 gusting 9 27.2
2017-Sep-23 11:42 076 2 gusting 8 27.2
2017-Sep-23 11:37 040 1 gusting 8 27.2
2017-Sep-23 11:32 112 1 gusting 6 27.2
2017-Sep-23 11:27 081 2 gusting 7 26.7
2017-Sep-23 11:22 005 2 gusting 7 26.7
2017-Sep-23 11:17 035 1 gusting 8 26.7
2017-Sep-23 11:12 066 2 gusting 8 26.7
2017-Sep-23 11:07 26.1
2017-Sep-23 11:02 078 3 gusting 8 26.1
2017-Sep-23 10:57 061 3 gusting 8 26.1
2017-Sep-23 10:52 049 1 gusting 6 26.1
2017-Sep-23 10:47 036 1 gusting 6 26.1
2017-Sep-23 10:42 088 2 gusting 6 25.6
2017-Sep-23 10:37 056 1 gusting 6 25.6
2017-Sep-23 10:32 065 2 gusting 5 25.6
2017-Sep-23 10:27 25.6
2017-Sep-23 10:22 098 0 gusting 6 25.6
2017-Sep-23 10:17 099 1 gusting 6 25.6
2017-Sep-23 10:12 031 1 gusting 6 25.0
2017-Sep-23 10:07 034 1 gusting 6 25.0
2017-Sep-23 10:02 080 0 gusting 5 25.0
2017-Sep-23 09:57 073 1 gusting 5 24.4
2017-Sep-23 09:52 078 2 gusting 5 24.4
2017-Sep-23 09:47 067 1 gusting 5 24.4
2017-Sep-23 09:42 072 1 gusting 5 23.9
2017-Sep-23 09:37 005 1 gusting 5 23.9
2017-Sep-23 09:32 053 0 gusting 4 23.9
2017-Sep-23 09:27 066 1 gusting 5 23.3
2017-Sep-23 09:22 067 2 gusting 5 23.3
2017-Sep-23 09:17 057 2 gusting 5 23.3
2017-Sep-23 09:12 037 1 gusting 5 23.3
2017-Sep-23 09:07 055 0 gusting 3 22.8
2017-Sep-23 09:02 064 0 gusting 6 22.8
2017-Sep-23 08:57 064 1 gusting 6 22.2
2017-Sep-23 08:52 064 1 gusting 6 21.7
2017-Sep-23 08:47 058 1 gusting 6 21.7
2017-Sep-23 08:42 058 2 gusting 6 21.7
2017-Sep-23 08:37 032 2 gusting 6 21.7
2017-Sep-23 08:32 355 1 gusting 6 21.1
2017-Sep-23 08:27 005 1 gusting 5 21.1
2017-Sep-23 08:22 010 2 gusting 5 20.6
2017-Sep-23 08:17 011 1 gusting 5 20.6
2017-Sep-23 08:12 053 1 gusting 3 20.6
2017-Sep-23 08:07 036 0 gusting 4 20.6
2017-Sep-23 08:02 036 0 gusting 4 20.0
2017-Sep-23 07:57 036 0 gusting 3 20.0
2017-Sep-23 07:52 351 0 gusting 3 19.4
2017-Sep-23 07:47 350 18.9
2017-Sep-23 07:42 318 0 gusting 3 18.9
2017-Sep-23 07:37 318 1 gusting 3 18.3
2017-Sep-23 07:32 318 1 gusting 3 18.3
2017-Sep-23 07:27 327 1 gusting 3 18.3
2017-Sep-23 07:22 321 1 gusting 4 18.3
2017-Sep-23 07:17 321 1 gusting 4 18.3
2017-Sep-23 07:12 322 1 gusting 4 18.3
2017-Sep-23 07:07 336 0 gusting 3 18.3
2017-Sep-23 07:02 336 18.3
2017-Sep-23 06:57 336 18.3
2017-Sep-23 06:52 336 18.3
2017-Sep-23 06:47 336 17.8
2017-Sep-23 06:42 336 17.8
2017-Sep-23 06:37 336 17.8
2017-Sep-23 06:32 336 17.8
2017-Sep-23 06:27 336 17.8
2017-Sep-23 06:22 336 17.8
2017-Sep-23 06:17 336 17.8
2017-Sep-23 06:12 336 17.8
2017-Sep-23 06:07 336 17.8
2017-Sep-23 06:02 336 17.8
2017-Sep-23 05:57 336 17.8
2017-Sep-23 05:52 336 0 gusting 1 17.8
2017-Sep-23 05:47 336 0 gusting 1 17.8
2017-Sep-23 05:42 336 17.8
2017-Sep-23 05:37 336 17.8
2017-Sep-23 05:32 336 0 gusting 2 17.8
2017-Sep-23 05:27 336 0 gusting 2 18.3
2017-Sep-23 05:22 336 0 gusting 2 18.3
2017-Sep-23 05:17 336 18.3
2017-Sep-23 05:12 336 0 gusting 2 18.3
2017-Sep-23 05:07 336 0 gusting 2 18.3
2017-Sep-23 05:02 336 18.3
2017-Sep-23 04:57 336 18.3
2017-Sep-23 04:52 336 18.3
2017-Sep-23 04:47 336 18.3
2017-Sep-23 04:42 336 18.3
2017-Sep-23 04:37 336 18.3
2017-Sep-23 04:32 336 18.3
2017-Sep-23 04:27 336 18.9
2017-Sep-23 04:22 336 18.9
2017-Sep-23 04:17 336 18.9
2017-Sep-23 04:12 336 18.9
2017-Sep-23 04:07 336 0 gusting 3 18.9
2017-Sep-23 04:02 336 1 gusting 3 18.9